Printer-friendly version

IAU Minor Planet Center

Minor Planet Center

MPEC 2006-B50 : 2006 BM8

The following Minor Planet Electronic Circular may be linked-to from your own Web pages, but must not otherwise be redistributed electronically.


Read MPEC 2006-B49 Read MPEC 2006-B51


M.P.E.C. 2006-B50                                Issued 2006 Jan. 24, 21:10 UT

     The Minor Planet Electronic Circulars contain information on unusual
         minor planets and routine data on comets.  They are published
   on behalf of Commission 20 of the International Astronomical Union by the
          Minor Planet Center, Smithsonian Astrophysical Observatory,
                          Cambridge, MA 02138, U.S.A.

                  Supported in part by the Brinson Foundation
                  Supported in part by the TABASGO Foundation
             Prepared using the Tamkin Foundation Computer Network

                              MPC@CFA.HARVARD.EDU
          URL http://cfa-www.harvard.edu/iau/mpc.html  ISSN 1523-6714

                                   2006 BM8

Observations:
     K06B08M* C2006 01 24.28831 08 00 34.84 +26 08 21.4          18.2 V EB050703
     K06B08M  C2006 01 24.29363 08 00 37.80 +26 08 38.7          18.9 V EB050703
     K06B08M  C2006 01 24.29900 08 00 40.82 +26 08 57.9          18.5 V EB050703
     K06B08M  C2006 01 24.30457 08 00 43.81 +26 09 16.7          18.3 V EB050703
     K06B08M  C2006 01 24.33201 08 00 59.04 +26 10 49.8          18.5 V EB050703
     K06B08M  C2006 01 24.33322 08 00 59.58 +26 10 53.6          18.6 V EB050703
     K06B08M  C2006 01 24.33443 08 01 00.33 +26 10 57.8          18.1 V EB050703
     K06B08M  C2006 01 24.79055 08 05 40.25 +26 32 07.0          18.8 V EB050198
     K06B08M  C2006 01 24.79148 08 05 40.71 +26 32 09.9          18.8 V EB050198
     K06B08M  C2006 01 24.79260 08 05 41.26 +26 32 13.4          18.9 V EB050198
     K06B08M  C2006 01 24.79353 08 05 41.70 +26 32 16.2          18.9 V EB050198
     K06B08M  C2006 01 24.79632 08 05 43.05 +26 32 24.6          19.0 V EB050198
     K06B08M  C2006 01 24.81476 08 05 51.91 +26 33 20.9          18.8 V EB050240
     K06B08M  C2006 01 24.81641 08 05 52.61 +26 33 25.2          19.1 V EB050240
     K06B08M  C2006 01 24.81806 08 05 53.40 +26 33 30.0          18.7 V EB050240
     K06B08M  C2006 01 24.81970 08 05 54.20 +26 33 34.9          18.6 V EB050240
     K06B08M  C2006 01 24.82135 08 05 55.04 +26 33 40.5          18.5 V EB050240
     K06B08M  C2006 01 24.82464 08 05 56.57 +26 33 51.2          18.7 V EB050240
     K06B08M  C2006 01 24.83662 08 06 02.75 +26 34 30.2          18.6 V EB050A13
     K06B08M  C2006 01 24.83910 08 06 03.87 +26 34 37.6          18.4 V EB050A13
     K06B08M  C2006 01 24.85087 08 06 09.26 +26 35 11.8          18.5 V EB050A13
     K06B08M  C2006 01 24.85356 08 06 10.40 +26 35 19.5          18.5 V EB050A13

Observer details:
198 Wildberg.  Observer R. Apitzsch.  0.35-m f/4.2 reflector + CCD.
240 Herrenberg.  Observer H. Michels.  0.40-m f/5 reflector + CCD.
703 Catalina Sky Survey.  Observer R. A. Kowalski.  Measurers E. C. Beshore,
    E. J. Christensen, G. J. Garradd, A. D. Grauer, R. E. Hill, R. A. Kowalski,
    S. M. Larson, R. H. McNaught.  0.68-m Schmidt + CCD.
A13 Observatoire Naef, Marly.  Observer P. Kocher.  0.5-m f/3.3 Hypergraph
    + CCD.

Orbital elements:
2006 BM8                                                 Earth MOID = 0.0031 AU
Epoch 2006 Mar. 6.0 TT = JDT 2453800.5                  MPC
M  47.66006              (2000.0)            P               Q
n   0.51431912     Peri.  281.90080     +0.71854331     -0.69121350
a   1.5428165      Node   121.88257     +0.66815326     +0.65536489
e   0.5296196      Incl.    5.19855     +0.19304592     +0.30450084
P   1.92           H   25.2           G   0.15           U   8
Residuals in seconds of arc
060124 703  0.1+  0.6+    060124 198  0.3+  0.1+    060124 240  0.3+  0.2+
060124 703  0.1+  0.8-    060124 198  0.3+  0.1+    060124 240  0.1+  1.1+
060124 703  0.5+  0.3-    060124 198  0.1+  0.1+    060124 A13  0.8+  0.0
060124 703  0.8-  0.7-    060124 198  0.0   0.0     060124 A13  0.5+  0.1+
060124 703  0.8+  0.4+    060124 240  0.1+  0.3+    060124 A13  0.5+  0.1-
060124 703  0.9-  0.2+    060124 240  1.0-  0.4-    060124 A13  0.6-  0.2-
060124 703  0.3+  0.5+    060124 240  0.9-  0.5-
060124 198  0.2+  0.0     060124 240  0.5-  0.5-

Ephemeris:
2006 BM8                 a,e,i = 1.54, 0.53, 5                   q = 0.7257
Date    TT    R. A. (2000) Decl.     Delta      r     Elong.  Phase     V
2006 01 25    08 07.24   +26 43.0    0.0391   1.023   170.9     8.7    18.8
2006 01 26    08 13.81   +27 14.9    0.0477   1.032   170.5     9.0    19.3
2006 01 27    08 18.42   +27 36.0    0.0563   1.040   170.0     9.4    19.7
2006 01 28    08 21.83   +27 50.7    0.0650   1.049   169.5     9.9    20.0
2006 01 29    08 24.45   +28 01.4    0.0737   1.057   169.0    10.3    20.3
2006 01 30    08 26.54   +28 09.2    0.0825   1.066   168.4    10.7    20.6
2006 01 31    08 28.25   +28 15.0    0.0913   1.075   167.8    11.2    20.9
2006 02 01    08 29.68   +28 19.2    0.100    1.083   167.2    11.6    21.1
2006 02 02    08 30.90   +28 22.3    0.109    1.092   166.6    12.1    21.3
2006 02 03    08 31.97   +28 24.4    0.118    1.101   165.9    12.6    21.5
2006 02 04    08 32.91   +28 25.7    0.127    1.109   165.3    13.1    21.7

Timothy B. Spahr             (C) Copyright 2006 MPC           M.P.E.C. 2006-B50

Read MPEC 2006-B49 Read MPEC 2006-B51


Our Web policy. Index to the CBAT/MPC/ICQ pages.


Valid HTML 4.01!